Stations météo

Publicité
La Hague, France (7020): Température de l'air & dewpoint: 14.09.2018 06:00:00 - 20.09.2018 06:00:00 (CEST)La Hague, France (7020): Vitesse du vent & gusts: 14.09.2018 06:00:00 - 20.09.2018 06:00:00 (CEST)La Hague, France (7020): Direction du vent: 14.09.2018 06:00:00 - 20.09.2018 06:00:00 (CEST)La Hague, France (7020): reduced air pressure: 14.09.2018 06:00:00 - 20.09.2018 06:00:00 (CEST)La Hague, France (7020): visibility: 14.09.2018 06:00:00 - 20.09.2018 06:00:00 (CEST)La Hague, France (7020): Quantités de précipitations: 14.09.2018 06:00:00 - 20.09.2018 06:00:00 (CEST)
Date & Time tt [°C] td [°C] ff [km/h] ff [knt] fx [km/h] fx [knt] dd ppp [hPa] vv [km] rr [mm]
20.09.2018 06:00:00 17,7 14,8 35 19 54 29 SSW 1015,5 - 0,0
20.09.2018 05:00:00 17,9 15,2 32 17 46 25 SSW 1015,7 - 0,0
20.09.2018 04:00:00 17,9 16,1 27 15 41 22 SSW 1015,9 - 0,0
20.09.2018 03:00:00 17,9 15,7 31 17 44 24 SSW 1016,1 - 0,0
20.09.2018 02:00:00 17,9 15,5 28 15 40 21 SSW 1016,2 12 -
20.09.2018 01:00:00 17,8 15,8 25 14 34 18 SSW 1016,5 - 0,0
20.09.2018 00:00:00 17,5 15,3 19 10 35 19 SSW 1017,0 - 0,0
19.09.2018 23:00:00 17,7 14,8 26 14 37 20 SW 1017,0 12 0,0
19.09.2018 22:00:00 17,8 14,9 25 14 40 22 SW 1017,2 - 0,0
19.09.2018 21:00:00 18,0 15,3 31 17 44 24 WSW 1017,0 - 0,0
19.09.2018 20:00:00 18,5 15,7 34 18 55 30 WSW 1016,8 12 0,0
19.09.2018 19:00:00 19,3 15,6 40 22 51 28 WSW 1016,4 - -
19.09.2018 18:00:00 20,0 16,0 31 17 - - SW 1016,4 - -
19.09.2018 17:00:00 20,7 16,3 - - - - - 1016,4 12 -
19.09.2018 16:00:00 20,6 15,8 32 17 47 25 SSW 1016,5 - -
19.09.2018 15:00:00 21,1 16,7 30 16 47 26 SSW 1016,6 - -
19.09.2018 14:00:00 19,4 15,9 29 16 48 26 SSW 1016,3 12 0,0
19.09.2018 13:00:00 19,1 15,4 35 19 59 32 SSW 1016,0 - 0,0
19.09.2018 12:00:00 19,5 15,4 40 22 56 30 S 1015,6 - 0,0
19.09.2018 11:00:00 18,9 15,6 37 20 52 28 S 1015,7 12 0,0
19.09.2018 10:00:00 18,5 15,6 33 18 52 28 SSW 1015,4 - 0,0
19.09.2018 09:00:00 18,6 15,7 34 18 50 27 SSW 1014,8 - 0,0
19.09.2018 08:00:00 17,9 15,3 32 17 48 26 SSW 1014,2 12 0,0
19.09.2018 07:00:00 17,7 15,1 31 17 49 27 SSW 1014,0 - 0,0
19.09.2018 06:00:00 18,0 15,3 32 18 49 27 SSW 1014,1 - 0,0
19.09.2018 05:00:00 17,9 15,3 31 17 46 25 SSW 1014,4 12 0,0
19.09.2018 04:00:00 17,9 15,5 30 16 47 26 SSW 1014,5 - 0,0
19.09.2018 03:00:00 18,2 15,4 31 17 46 25 SSW 1014,8 - 0,0
19.09.2018 02:00:00 18,4 15,3 30 16 41 22 SSW 1014,9 12 0,0
19.09.2018 01:00:00 18,1 14,8 23 13 35 19 SSW 1014,9 - 0,0
19.09.2018 00:00:00 18,4 14,9 21 11 29 15 S 1014,6 - 0,0
18.09.2018 23:00:00 18,5 15,0 21 11 29 16 SSW 1014,8 20 0,0
18.09.2018 22:00:00 18,4 14,9 15 8 24 13 SSW 1014,8 - -
18.09.2018 21:00:00 18,8 14,1 17 9 25 14 S 1014,7 - -
18.09.2018 20:00:00 18,6 14,3 18 10 27 14 S 1014,3 14 -
18.09.2018 19:00:00 18,9 14,4 19 10 26 14 S 1014,0 - -
18.09.2018 18:00:00 19,4 15,5 20 11 34 18 SW 1014,1 - -
18.09.2018 17:00:00 19,8 14,8 24 13 - - SSW 1014,2 12 -
18.09.2018 16:00:00 20,3 15,1 29 15 - - SSW 1014,2 - 0,0
18.09.2018 15:00:00 20,2 15,0 33 18 - - SSW 1014,2 - -
18.09.2018 14:00:00 20,3 15,3 - - 49 26 - 1014,0 12 -
18.09.2018 13:00:00 19,6 15,5 33 18 48 26 SSW 1013,6 - 0,0
18.09.2018 12:00:00 18,5 14,4 34 18 48 26 SW 1013,2 - 0,0
18.09.2018 11:00:00 18,0 13,9 35 19 51 28 SW 1012,4 20 0,0
18.09.2018 10:00:00 18,2 14,3 34 18 51 28 SW 1011,4 - 0,0
18.09.2018 09:00:00 18,0 14,1 38 21 56 31 SW 1010,5 - 0,0
18.09.2018 08:00:00 18,3 14,4 41 22 68 37 SW 1009,6 14 0,0
18.09.2018 07:00:00 18,5 13,6 52 28 77 42 SW 1008,9 - 0,0
18.09.2018 06:00:00 18,5 14,8 41 22 68 37 SSW 1008,7 - 0,0
18.09.2018 05:00:00 19,0 15,7 39 21 63 34 SSW 1008,3 16 0,0
18.09.2018 04:00:00 18,9 15,8 37 20 56 31 S 1007,8 - 0,0
18.09.2018 03:00:00 18,9 15,6 35 19 53 29 S 1008,3 - 0,0
18.09.2018 02:00:00 18,8 15,5 31 17 50 27 S 1008,6 18 0,0
18.09.2018 01:00:00 18,2 15,6 28 15 42 23 S 1008,5 - 0,0
18.09.2018 00:00:00 18,6 15,5 29 16 44 24 S 1008,7 - 0,0
17.09.2018 23:00:00 19,5 14,1 25 13 46 25 SSW 1008,8 25 -
17.09.2018 22:00:00 21,8 12,6 26 14 39 21 S 1008,7 - -
17.09.2018 21:00:00 21,7 11,4 16 8 26 14 S 1009,1 - 0,0
17.09.2018 20:00:00 23,3 10,0 19 10 - - S 1009,3 16 -
17.09.2018 19:00:00 24,9 9,6 19 10 - - S 1010,0 - -
17.09.2018 18:00:00 24,8 9,1 - - - - - 1010,9 - -
17.09.2018 17:00:00 - - 16 9 - - SSW - 16 -
17.09.2018 16:00:00 24,5 9,2 24 13 - - S 1012,7 - -
17.09.2018 15:00:00 23,2 9,2 - - - - - 1013,8 - -
17.09.2018 14:00:00 - - - - - - - - - -
17.09.2018 13:00:00 - - - - - - - - - -
17.09.2018 12:00:00 - - - - - - - - - -
17.09.2018 11:00:00 - - - - - - - - - -
17.09.2018 10:00:00 - - - - - - - - - -
17.09.2018 09:00:00 - - - - - - - - - -
17.09.2018 08:00:00 15,9 14,4 8 4 13 7 SSE 1017,5 12 0,0
17.09.2018 07:00:00 14,1 13,1 9 5 10 5 S 1017,9 - 0,0
17.09.2018 06:00:00 13,8 12,4 5 3 11 6 SSE 1017,9 - 0,0
17.09.2018 05:00:00 15,5 13,7 9 5 13 7 S 1018,0 12 0,0
17.09.2018 04:00:00 15,4 13,9 8 4 12 7 S 1018,5 - 0,0
17.09.2018 03:00:00 17,1 14,6 11 6 17 9 S 1018,8 - 0,0
17.09.2018 02:00:00 17,5 15,1 12 6 24 13 SSW 1019,6 12 0,0
17.09.2018 01:00:00 17,8 15,1 22 12 29 16 SW 1020,0 - 0,0
17.09.2018 00:00:00 17,8 15,1 20 11 27 15 WSW 1020,0 - 0,0
16.09.2018 23:00:00 17,0 13,7 14 7 20 11 S 1019,9 15 0,0
16.09.2018 22:00:00 17,1 13,8 13 7 20 11 SSW 1019,8 - 0,0
16.09.2018 21:00:00 16,6 12,9 10 5 23 12 S 1019,4 - 0,0
16.09.2018 20:00:00 17,7 14,0 14 8 22 12 SSW 1019,6 - -
16.09.2018 19:00:00 19,0 13,4 14 8 - - SSW 1019,7 - -
16.09.2018 18:00:00 19,3 13,0 17 9 - - SW 1019,5 - -
16.09.2018 17:00:00 19,7 12,9 22 12 - - SSW 1019,0 18 -
16.09.2018 16:00:00 20,1 12,8 23 12 32 18 SSW 1019,5 - -
16.09.2018 15:00:00 20,3 12,8 25 14 36 19 SSW 1019,9 - 0,0
16.09.2018 14:00:00 18,4 12,2 25 14 35 19 S 1019,8 18 0,0
16.09.2018 13:00:00 18,5 13,8 21 11 31 17 S 1020,5 - -
16.09.2018 12:00:00 18,6 13,9 23 13 32 18 S 1020,6 - 0,0
16.09.2018 11:00:00 18,1 13,4 24 13 33 18 S 1020,3 16 0,0
16.09.2018 10:00:00 18,0 13,5 20 11 29 16 S 1020,0 - 0,0
16.09.2018 09:00:00 16,2 13,7 14 8 27 14 S 1020,2 - 0,0
16.09.2018 08:00:00 15,9 13,0 19 11 31 17 S 1019,9 16 0,0
16.09.2018 07:00:00 16,2 12,7 20 11 29 16 S 1019,8 - 0,0
16.09.2018 06:00:00 16,3 10,4 18 10 28 15 S 1020,0 - 0,0
16.09.2018 05:00:00 15,5 9,2 16 9 26 14 S 1020,6 - 0,0
16.09.2018 04:00:00 15,9 9,1 19 11 27 15 SSE 1021,1 - 0,0
16.09.2018 03:00:00 16,1 9,5 18 10 26 14 SSE 1021,8 - 0,0
16.09.2018 02:00:00 14,2 10,2 14 8 21 11 SE 1022,0 16 0,0
16.09.2018 01:00:00 13,9 10,5 15 8 19 11 ESE 1022,7 - 0,0
16.09.2018 00:00:00 13,9 10,9 14 8 20 11 ESE 1023,1 - 0,0
15.09.2018 23:00:00 13,4 10,6 12 7 19 10 ESE 1024,0 16 0,0
15.09.2018 22:00:00 13,5 11,4 13 7 17 9 ESE 1024,2 - 0,0
15.09.2018 21:00:00 12,7 9,7 10 6 16 9 SE 1024,4 - 0,0
15.09.2018 20:00:00 16,5 11,6 3 2 8 5 WSW 1024,0 16 -
15.09.2018 19:00:00 17,8 12,5 7 4 - - W 1024,3 - -
15.09.2018 18:00:00 18,1 12,3 9 5 - - WSW 1024,7 - -
15.09.2018 17:00:00 - - - - 18 10 - - 16 -
15.09.2018 16:00:00 18,6 11,7 12 6 19 11 SW 1025,7 - 0,0
15.09.2018 15:00:00 18,3 11,6 13 7 - - SW 1026,2 - -
15.09.2018 14:00:00 - - - - - - - - 16 -
15.09.2018 13:00:00 18,0 11,5 - - - - - 1026,6 - -
15.09.2018 12:00:00 - - 10 5 19 10 W - - -
15.09.2018 11:00:00 17,7 12,2 10 5 20 11 W 1026,5 16 -
15.09.2018 10:00:00 16,8 11,3 13 7 21 12 W 1026,1 - 0,0
15.09.2018 09:00:00 16,3 11,7 14 8 26 14 WNW 1025,8 - 0,0
15.09.2018 08:00:00 15,5 11,3 19 11 28 15 W 1025,2 16 0,0
15.09.2018 07:00:00 15,6 12,0 18 10 27 15 W 1024,8 - 0,0
15.09.2018 06:00:00 15,7 11,5 19 10 27 15 W 1024,7 - 0,0
15.09.2018 05:00:00 15,6 12,0 18 10 28 15 W 1024,6 16 0,0
15.09.2018 04:00:00 15,7 12,1 19 10 26 14 W 1024,5 - 0,0
15.09.2018 03:00:00 15,8 12,2 20 11 35 19 W 1024,7 - 0,0
15.09.2018 02:00:00 16,0 12,4 24 13 34 18 W 1025,0 16 0,0
15.09.2018 01:00:00 16,1 12,6 24 13 34 18 W 1024,7 - 0,0
15.09.2018 00:00:00 16,1 12,6 22 12 36 19 W 1024,3 - 0,0
14.09.2018 23:00:00 16,0 12,9 25 14 38 21 W 1024,3 16 0,0
14.09.2018 22:00:00 16,1 12,5 27 15 40 22 W 1024,1 - 0,0
14.09.2018 21:00:00 16,1 12,3 27 15 39 21 W 1023,8 - 0,0
14.09.2018 20:00:00 16,3 12,1 29 15 37 20 WSW 1023,3 18 0,0
14.09.2018 19:00:00 16,8 11,7 25 13 39 21 W 1023,5 - 0,0
14.09.2018 18:00:00 17,3 10,9 28 15 38 21 WSW 1023,3 - 0,0
14.09.2018 17:00:00 17,5 11,3 26 14 42 23 WSW 1023,2 18 0,0
14.09.2018 16:00:00 16,4 11,8 30 16 46 25 WSW 1023,5 - 0,0
14.09.2018 15:00:00 16,9 10,7 29 15 39 21 WSW 1023,5 - 0,0
14.09.2018 14:00:00 16,7 10,1 21 12 40 21 W 1023,7 18 0,0
14.09.2018 13:00:00 15,6 10,8 29 16 38 20 WSW 1023,7 - -
14.09.2018 12:00:00 17,2 9,6 19 10 30 16 W 1023,8 - 0,0
14.09.2018 11:00:00 16,7 9,1 - - 25 13 - 1023,5 16 0,0
14.09.2018 10:00:00 16,4 8,9 18 10 25 13 W 1023,1 - 0,0
14.09.2018 09:00:00 15,1 9,0 16 9 26 14 W 1022,9 - 0,0
14.09.2018 08:00:00 15,0 9,4 18 10 26 14 W 1022,7 14 0,0
14.09.2018 07:00:00 15,1 9,5 18 10 29 16 W 1022,7 - 0,0
14.09.2018 06:00:00 14,6 8,1 13 7 23 12 WNW 1022,7 - 0,0

tt = Température de l'air
td = dewpoint
ff = Vitesse du vent
fx = gusts
dd = Direction du vent
ppp = reduced air pressure
vv = visibility
rr = Quantités de précipitations

stations d'obs. à proximité